Date,TemperatureHighF,TemperatureAvgF,TemperatureLowF,DewpointHighF,DewpointAvgF,DewpointLowF,HumidityHigh,HumidityAvg,HumidityLow,PressureMaxIn,PressureMinIn,WindSpeedMaxMPH,WindSpeedAvgMPH,GustSpeedMaxMPH,PrecipitationSumIn
2013-1-1,57.9,50.6,41.9,56.8,47.4,38.8,96,89,76,30.24,29.95,22,10,22,0.11
2013-1-2,43.9,40.4,36.6,38.8,32.5,30.0,88,74,62,30.35,30.23,20,9,20,0.00
2013-1-3,46.5,41.6,37.5,34.0,32.3,30.7,79,70,57,30.48,30.33,18,9,18,0.00
2013-1-4,44.3,41.3,38.2,39.4,37.1,32.7,93,85,64,30.54,30.40,21,9,21,0.09
2013-1-5,52.6,44.0,37.8,43.3,39.4,36.2,94,84,70,30.41,30.25,12,3,12,0.00
2013-1-6,59.6,45.9,32.3,39.7,34.2,29.8,97,69,36,30.41,30.29,20,6,20,0.01
2013-1-7,54.9,53.1,51.2,48.1,45.1,43.1,89,75,65,30.13,30.06,12,3,12,0.01
2013-1-8,55.8,51.5,47.6,54.9,50.4,46.5,97,96,90,30.06,29.84,17,7,17,0.76
2013-1-9,62.2,56.9,51.9,58.2,55.2,50.9,97,94,85,30.04,29.85,25,8,25,1.89
2013-1-10,65.8,54.8,44.6,50.8,46.1,43.6,97,75,47,30.06,29.98,23,8,23,0.02
2013-1-11,70.8,58.7,43.4,66.9,55.5,42.1,96,89,77,30.03,29.82,20,6,20,0.00
2013-1-12,74.5,69.5,53.4,68.9,64.6,42.8,93,85,60,29.83,29.64,25,10,25,0.00
2013-1-13,54.9,47.2,39.8,42.6,34.2,28.9,71,61,45,30.18,29.83,26,13,26,0.00
2013-1-14,49.4,41.5,36.3,35.4,30.7,25.8,73,65,56,30.26,30.11,24,14,24,0.00
2013-1-15,43.3,38.3,36.5,36.7,34.0,26.7,95,85,66,30.28,30.12,20,11,20,0.00
2013-1-16,54.9,41.7,29.8,26.7,20.9,12.8,71,47,20,30.39,30.22,22,5,22,0.00
2013-1-17,65.9,49.9,35.0,37.9,32.4,21.8,75,53,32,30.50,30.33,21,4,21,0.00
2013-1-18,64.7,50.6,37.3,42.2,35.8,31.9,84,60,32,30.54,30.33,15,4,15,0.00
2013-1-19,68.3,53.7,37.6,49.7,43.6,36.3,97,72,40,30.33,30.16,24,5,24,0.00
2013-1-20,70.3,55.6,40.8,56.1,47.9,39.1,96,77,50,30.27,30.10,16,3,16,0.00
2013-1-21,73.0,58.8,44.9,56.5,50.3,43.6,97,76,45,30.24,30.14,12,3,12,0.00
2013-1-22,73.5,59.0,46.9,53.3,48.3,42.1,86,69,47,30.32,30.19,20,7,20,0.00
2013-1-23,76.2,61.0,46.4,60.6,54.3,45.0,97,81,52,30.35,30.19,20,5,20,0.00
2013-1-24,78.7,66.0,58.4,64.7,60.6,56.8,96,84,58,30.26,30.10,18,8,18,0.00
2013-1-25,79.7,68.5,61.2,63.9,62.0,59.4,95,81,56,30.15,30.00,16,9,16,0.00
2013-1-26,73.7,62.2,53.0,63.4,56.4,50.8,96,82,58,30.16,30.02,20,8,20,0.00
2013-1-27,78.0,68.4,59.2,67.1,63.8,57.8,96,86,67,30.09,29.94,26,13,26,0.00
2013-1-28,75.5,72.0,68.8,68.3,67.3,66.4,93,85,76,30.04,29.86,30,16,30,0.00
2013-1-29,85.9,73.0,59.7,68.9,58.3,26.8,88,64,29,29.86,29.48,34,17,34,0.00
2013-1-30,60.6,52.5,41.1,29.2,20.6,10.2,43,30,14,30.25,29.80,31,10,31,0.00
2013-1-31,67.4,49.8,31.7,35.3,23.4,17.8,71,40,16,30.33,30.20,21,7,21,0.00
2013-2-1,71.7,57.9,44.1,46.8,39.7,34.3,79,54,29,30.35,30.18,26,8,26,0.00
2013-2-2,75.2,59.6,42.7,57.5,48.6,39.8,93,69,44,30.28,30.15,18,3,18,0.00
2013-2-3,70.8,60.6,50.1,55.3,45.4,37.2,87,59,38,30.33,30.02,17,7,17,0.00
2013-2-4,76.5,64.7,58.8,61.4,58.1,51.5,94,81,54,30.02,29.78,24,6,24,0.00
2013-2-5,81.3,66.8,53.9,59.7,50.4,39.9,97,63,23,29.97,29.85,9,2,9,0.00
2013-2-6,73.1,64.7,59.3,62.0,59.3,52.1,94,83,63,29.98,29.82,21,7,21,0.09
2013-2-7,77.0,65.4,59.2,64.2,58.6,44.5,94,80,45,30.05,29.86,18,6,18,0.00
2013-2-8,69.5,60.2,49.9,49.8,40.6,32.7,76,51,26,30.22,30.05,21,9,21,0.00
2013-2-9,70.3,60.4,52.1,67.4,57.1,40.8,95,90,57,30.08,29.79,23,9,23,0.01
2013-2-10,71.1,65.5,59.0,67.6,47.0,29.1,95,56,25,30.00,29.74,28,9,28,0.01
2013-2-11,59.9,55.7,51.2,51.8,46.9,39.8,95,74,52,30.05,29.93,20,10,20,0.02
2013-2-12,74.4,60.1,51.3,58.0,46.5,27.6,97,68,26,30.03,29.81,22,7,22,0.03
2013-2-13,64.3,51.7,41.0,42.7,34.2,29.1,77,53,28,30.17,30.02,24,6,24,0.00
2013-2-14,68.8,53.0,35.3,42.4,37.8,31.4,87,59,33,30.16,30.01,18,4,18,0.00
2013-2-15,66.5,52.7,39.5,47.3,38.6,23.8,92,62,32,30.38,30.08,25,9,25,0.00
2013-2-16,64.5,50.1,32.9,30.5,27.1,22.6,69,43,25,30.49,30.24,15,6,15,0.00
2013-2-17,68.1,50.3,37.6,54.3,39.6,30.1,81,67,45,30.24,29.99,30,10,30,0.00
2013-2-18,79.6,68.2,59.7,63.0,53.0,28.0,87,62,20,30.06,29.83,25,14,25,0.00
2013-2-19,67.3,58.2,46.9,36.6,33.0,27.5,62,40,24,30.24,30.05,22,11,22,0.00
2013-2-20,69.5,59.9,52.2,66.3,53.7,33.2,95,81,39,30.10,29.65,33,12,33,0.01
2013-2-21,78.5,70.1,57.1,68.3,45.9,22.6,92,52,15,29.84,29.57,27,10,27,0.01
2013-2-22,61.2,54.2,48.0,40.5,35.3,25.2,74,50,28,30.01,29.84,24,12,24,0.00
2013-2-23,72.3,55.7,42.9,42.6,36.4,29.4,65,50,31,30.07,29.86,20,7,20,0.00
2013-2-24,68.7,57.2,39.1,59.8,49.9,35.4,94,77,63,29.92,29.60,24,8,24,0.00
2013-2-25,65.8,58.1,47.3,59.4,37.1,15.4,96,52,16,29.88,29.57,44,16,44,0.02
2013-2-26,64.8,52.0,36.7,31.1,28.5,25.3,70,43,24,29.98,29.86,18,7,18,0.00
2013-2-27,64.6,53.9,43.8,37.1,31.1,24.2,72,44,24,30.23,29.88,29,9,29,0.00
2013-2-28,62.2,50.5,42.8,30.3,26.3,22.3,56,40,22,30.35,30.19,21,7,21,0.00
2013-3-1,70.2,52.6,32.3,30.4,25.5,16.1,73,39,17,30.31,30.11,32,5,32,0.00
2013-3-2,64.3,52.3,41.3,31.0,28.3,24.1,63,41,24,30.44,30.27,22,7,22,0.00
2013-3-3,76.0,57.1,36.4,44.5,33.8,24.3,64,44,22,30.28,29.95,29,11,29,0.00
2013-3-4,87.0,67.1,50.1,57.5,50.4,43.6,91,60,23,29.96,29.70,22,10,22,0.00
2013-3-5,67.5,58.3,43.7,57.4,30.5,12.2,95,42,13,30.36,29.77,46,13,46,0.00
2013-3-6,63.0,50.8,39.1,30.5,20.4,13.9,50,31,15,30.46,30.23,18,6,18,0.00
2013-3-7,72.2,56.9,39.2,55.9,46.9,30.8,87,70,45,30.25,30.09,23,9,23,0.00
2013-3-8,69.4,63.7,60.2,65.2,60.1,54.7,95,88,79,30.14,29.97,25,10,25,0.08
2013-3-9,75.5,67.7,63.2,67.4,64.0,60.3,95,88,74,30.01,29.62,36,15,36,0.02
2013-3-10,69.0,62.4,52.4,64.6,44.4,33.3,96,55,30,30.12,29.63,25,10,25,0.55
2013-3-11,69.5,54.3,38.7,35.0,29.8,21.3,75,43,21,30.20,30.00,18,6,18,0.00
2013-3-12,79.2,60.7,40.7,43.0,33.0,26.5,68,39,17,30.20,30.06,23,6,23,0.00
2013-3-13,76.0,61.2,46.0,49.9,41.3,37.0,87,53,26,30.43,30.21,20,6,20,0.00
2013-3-14,78.5,62.6,46.3,55.8,48.4,39.4,89,63,33,30.39,30.21,25,8,25,0.00
2013-3-15,80.5,65.2,48.0,57.6,50.0,41.8,96,65,26,30.25,29.98,29,11,29,0.00
2013-3-16,84.1,68.4,55.9,63.1,58.4,54.2,95,74,38,30.00,29.73,30,15,30,0.00
2013-3-17,86.3,72.8,65.6,66.4,62.9,60.1,90,73,42,29.81,29.62,24,10,24,0.00
2013-3-18,93.3,74.6,62.4,67.4,57.1,34.9,96,64,13,29.90,29.69,23,7,23,0.00
2013-3-19,78.0,67.3,54.6,66.5,57.0,46.6,85,70,57,29.97,29.80,22,8,22,0.00
2013-3-20,72.6,63.6,56.6,64.7,50.2,40.0,88,65,32,30.21,29.93,30,11,30,0.00
2013-3-21,76.2,64.7,51.5,63.1,54.4,42.6,86,70,55,30.02,29.62,30,12,30,0.00
2013-3-22,87.5,72.9,64.5,69.2,65.0,54.3,95,79,44,29.72,29.59,26,9,26,0.00
2013-3-23,81.5,65.0,54.1,64.0,55.9,49.6,87,73,52,29.77,29.57,17,7,17,0.00
2013-3-24,67.0,55.5,46.0,60.2,34.0,19.0,91,49,20,30.16,29.67,33,14,33,0.00
2013-3-25,59.6,48.6,36.7,28.3,21.4,11.3,63,37,17,30.39,30.16,21,7,21,0.00
2013-3-26,66.6,51.6,37.3,28.4,22.3,17.4,55,34,17,30.51,30.29,15,5,15,0.00
2013-3-27,67.5,56.2,38.4,51.6,41.0,28.8,77,57,43,30.34,30.16,25,10,25,0.00
2013-3-28,71.8,64.8,58.4,59.8,56.8,51.5,84,76,64,30.20,30.11,24,10,24,0.00
2013-3-29,77.7,68.3,58.1,62.0,58.8,56.3,95,74,49,30.17,30.03,22,10,22,0.00
2013-3-30,84.8,72.7,64.9,65.8,63.0,60.6,91,74,46,30.09,29.86,23,12,23,0.00
2013-3-31,83.6,70.7,65.3,66.4,64.4,61.9,93,82,53,29.94,29.78,20,7,20,0.02
2013-4-1,86.4,72.7,63.4,67.5,63.4,60.6,94,76,44,30.02,29.86,25,6,25,0.00
2013-4-2,79.8,70.2,59.9,67.7,64.6,56.1,95,83,63,30.00,29.77,34,9,34,0.37
2013-4-3,59.0,54.5,50.4,57.6,52.3,47.1,96,92,88,30.13,29.70,24,10,24,1.43
2013-4-4,65.4,54.5,48.7,47.6,45.4,42.1,90,73,49,30.22,30.09,20,8,20,0.00
2013-4-5,73.0,56.5,40.8,51.3,45.8,39.1,95,70,42,30.29,30.06,13,4,13,0.00
2013-4-6,81.5,65.5,51.1,60.0,55.6,48.9,95,73,45,30.09,29.84,26,11,26,0.00
2013-4-7,83.8,69.9,61.1,66.1,62.2,58.8,94,78,51,29.91,29.74,26,11,26,0.00
2013-4-8,77.2,71.0,67.8,68.5,66.1,62.7,92,85,73,29.82,29.65,24,12,24,0.00
2013-4-9,87.8,76.2,71.0,71.7,68.6,66.5,88,78,54,29.70,29.54,29,15,29,0.00
2013-4-10,74.9,61.0,47.7,70.1,55.6,43.8,94,82,71,29.92,29.60,29,13,29,0.05
2013-4-11,67.5,54.8,45.6,46.4,42.3,37.6,87,64,41,29.99,29.80,20,7,20,0.04
2013-4-12,80.5,63.2,44.9,53.3,46.1,41.1,92,59,26,30.01,29.83,15,4,15,0.00
2013-4-13,77.7,65.5,51.8,60.7,54.3,48.3,93,69,43,29.95,29.74,21,7,21,0.00
2013-4-14,88.7,70.2,55.5,69.4,62.2,53.6,96,79,44,29.82,29.59,22,7,22,0.00
2013-4-15,90.0,77.4,69.3,69.3,66.9,62.2,92,73,41,29.78,29.66,23,11,23,0.00
2013-4-16,85.8,75.8,67.9,71.7,68.1,64.0,95,78,57,29.86,29.75,26,11,26,0.00
2013-4-17,80.7,75.6,72.8,73.5,71.4,69.7,95,87,72,29.85,29.62,26,12,26,0.00
2013-4-18,75.9,64.8,52.6,72.1,56.6,38.9,96,76,51,30.04,29.62,24,12,24,0.18
2013-4-19,69.8,57.9,46.4,40.0,33.2,25.9,73,43,21,30.30,30.05,22,8,22,0.00
2013-4-20,73.8,58.8,41.5,49.1,35.7,27.8,74,46,19,30.24,29.98,23,7,23,0.00
2013-4-21,80.9,65.5,51.8,60.0,53.9,48.1,88,68,41,30.13,29.97,22,8,22,0.00
2013-4-22,84.8,69.5,56.9,63.7,60.1,55.3,96,75,44,30.10,29.84,22,8,22,0.00
2013-4-23,79.7,69.6,55.2,68.3,62.1,46.2,90,78,59,30.05,29.83,20,10,20,0.00
2013-4-24,62.7,54.6,46.7,46.2,40.5,36.9,83,61,43,30.25,30.05,26,13,26,0.00
2013-4-25,66.7,61.4,56.7,50.3,45.7,41.6,64,57,47,30.32,30.17,16,7,16,0.00
2013-4-26,79.0,68.5,59.5,70.0,62.9,48.3,96,83,58,30.19,30.01,26,8,26,0.00
2013-4-27,79.7,71.5,66.4,71.7,68.1,64.5,95,89,75,30.07,29.91,22,5,22,0.20
2013-4-28,82.2,71.1,60.4,66.4,63.6,58.6,95,79,53,30.01,29.84,22,5,22,0.02
2013-4-29,84.5,71.3,66.1,68.2,65.5,63.0,95,83,52,29.91,29.74,33,6,33,0.34
2013-4-30,82.0,71.7,64.8,68.7,65.8,63.3,95,83,59,29.82,29.69,13,4,13,0.00
2013-5-1,86.6,76.2,67.4,70.6,68.1,65.0,94,77,56,29.89,29.76,20,5,20,0.00
2013-5-2,75.9,57.1,50.0,70.1,49.1,37.9,87,75,60,30.33,29.89,45,14,45,0.65
2013-5-3,69.3,57.1,46.2,39.7,33.9,28.3,65,44,22,30.36,30.08,27,9,27,0.00
2013-5-4,79.8,62.5,43.2,45.8,39.4,33.4,81,47,21,30.10,29.87,22,7,22,0.00
2013-5-5,80.5,65.2,50.5,49.9,45.1,40.1,81,51,27,30.14,29.97,16,5,16,0.00
2013-5-6,75.7,64.7,50.3,54.2,50.4,45.6,89,62,43,30.15,29.98,12,2,12,0.00
2013-5-7,84.9,69.7,51.1,61.5,54.5,48.3,92,62,31,30.08,29.91,18,5,18,0.00
2013-5-8,83.9,72.3,62.2,67.5,63.9,59.8,93,76,49,30.00,29.86,21,10,21,0.00
2013-5-9,79.2,73.8,64.9,72.9,69.0,61.9,92,85,77,29.96,29.80,29,9,29,0.04
2013-5-10,81.1,70.7,63.1,69.6,64.3,60.2,95,82,52,30.00,29.80,30,7,30,0.22
2013-5-11,81.8,71.9,63.2,65.2,60.7,53.6,93,70,47,30.12,29.97,21,7,21,0.00
2013-5-12,80.3,69.9,58.6,57.4,53.6,50.8,77,57,37,30.23,30.08,21,5,21,0.00
2013-5-13,83.6,69.8,55.0,62.3,55.6,49.6,86,63,37,30.25,30.12,16,4,16,0.00
2013-5-14,85.1,73.4,59.8,69.1,63.7,56.9,93,73,52,30.21,29.98,29,9,29,0.00
2013-5-15,85.3,75.7,70.6,73.2,70.0,67.5,95,83,62,30.08,29.81,30,14,30,0.10
2013-5-16,94.8,79.5,71.6,75.7,71.0,68.0,89,77,47,29.84,29.67,27,14,27,0.00
2013-5-17,95.0,81.2,74.3,75.2,72.6,69.0,91,77,50,29.88,29.75,21,11,21,0.00
2013-5-18,94.3,81.0,72.5,74.0,69.5,65.7,93,71,43,29.89,29.78,31,12,31,0.00
2013-5-19,92.0,80.9,73.0,74.3,71.0,68.1,90,73,52,29.83,29.69,25,14,25,0.00
2013-5-20,92.3,80.5,71.1,73.3,71.1,68.2,94,75,52,29.81,29.66,26,12,26,0.00
2013-5-21,90.5,81.0,70.6,74.1,72.3,65.0,92,76,56,29.84,29.65,28,10,28,0.01
2013-5-22,90.0,77.5,64.8,74.0,67.5,61.3,89,72,56,29.89,29.76,16,6,16,0.00
2013-5-23,92.0,81.2,73.6,73.9,72.4,71.2,93,76,53,29.99,29.82,23,9,23,0.00
2013-5-24,80.5,74.0,68.1,74.4,71.3,66.5,96,91,80,30.08,29.97,18,5,18,3.52
2013-5-25,79.3,73.2,69.9,73.8,70.5,68.3,95,91,77,30.13,29.99,21,7,21,1.27
2013-5-26,85.0,77.4,71.0,77.1,71.7,68.3,94,83,63,30.06,29.94,24,9,24,0.11
2013-5-27,88.3,78.6,71.2,75.1,71.7,68.7,94,80,61,30.00,29.82,24,12,24,0.01
2013-5-28,88.0,79.9,74.4,74.5,72.0,70.6,89,78,59,29.89,29.73,29,17,29,0.00
2013-5-29,85.5,78.6,73.9,74.7,72.6,70.7,92,82,67,29.86,29.69,33,15,33,0.00
2013-5-30,83.7,78.1,76.0,75.0,73.2,72.2,89,85,72,29.81,29.74,23,12,23,0.00
2013-5-31,93.0,82.2,74.9,77.3,74.6,72.6,93,79,56,29.85,29.71,23,12,23,0.00
2013-6-1,95.5,83.8,76.4,76.1,74.4,72.7,91,75,52,29.87,29.75,32,12,32,0.00
2013-6-2,86.5,76.8,67.0,74.7,68.5,63.3,95,77,49,30.02,29.86,18,4,18,0.06
2013-6-3,92.6,78.8,64.9,71.9,67.0,62.0,94,70,38,29.97,29.80,14,2,14,0.00
2013-6-4,92.7,80.0,67.7,72.3,69.2,64.0,96,73,40,29.89,29.76,20,5,20,0.00
2013-6-5,92.7,80.2,66.8,72.6,69.3,64.7,95,72,42,29.85,29.70,17,6,17,0.00
2013-6-6,93.5,81.2,68.6,73.3,69.3,66.5,95,70,43,29.89,29.73,22,3,22,0.00
2013-6-7,78.8,73.4,68.2,70.4,67.1,64.6,94,81,66,29.96,29.85,20,4,20,0.02
2013-6-8,90.0,76.6,62.8,74.1,68.4,60.3,95,77,53,29.91,29.76,20,5,20,0.01
2013-6-9,87.5,78.5,73.6,76.8,73.1,65.8,95,84,65,29.93,29.81,21,3,21,0.09
2013-6-10,93.0,81.0,70.8,75.6,72.0,68.7,95,76,49,29.97,29.87,20,3,20,0.00
2013-6-11,92.5,78.1,71.8,76.2,72.3,67.2,95,84,53,30.00,29.93,38,3,38,0.02
2013-6-12,90.7,78.9,71.4,77.2,73.6,69.7,95,85,56,30.02,29.93,30,5,30,0.00
2013-6-13,91.0,78.9,74.5,78.1,74.3,70.4,94,87,59,30.03,29.91,34,3,34,0.02
2013-6-14,88.1,79.6,73.9,77.7,74.5,72.1,95,85,63,29.97,29.86,14,2,14,0.02
2013-6-15,92.5,82.9,76.4,77.3,74.8,71.9,94,78,54,29.97,29.85,16,4,16,0.00
2013-6-16,94.2,83.5,74.2,76.1,73.9,70.9,94,75,48,29.99,29.86,20,8,20,0.00
2013-6-17,94.2,84.8,76.6,76.5,74.1,70.4,91,72,48,29.97,29.81,22,10,22,0.00
2013-6-18,93.8,84.0,75.2,75.3,72.2,66.0,93,70,42,29.97,29.83,20,6,20,0.00
2013-6-19,96.0,84.5,75.5,75.1,72.2,62.8,93,70,35,29.95,29.85,23,9,23,0.00
2013-6-20,95.7,83.8,73.9,75.5,72.1,64.6,94,71,38,30.02,29.91,24,10,24,0.00
2013-6-21,95.3,84.4,75.5,75.5,71.0,61.6,94,68,34,30.05,29.93,24,11,24,0.00
2013-6-22,96.2,84.7,75.7,75.1,71.2,62.8,93,67,34,30.02,29.86,23,12,23,0.00
2013-6-23,95.7,84.3,76.6,75.1,70.4,62.1,93,67,35,29.95,29.84,24,12,24,0.00
2013-6-24,96.0,84.5,74.9,75.5,72.0,65.9,94,69,38,30.00,29.86,30,13,30,0.00
2013-6-25,97.1,85.5,76.8,74.9,71.8,66.0,90,66,39,29.97,29.83,28,14,28,0.00
2013-6-26,98.8,86.2,76.7,75.0,72.6,67.9,90,67,38,29.95,29.83,24,12,24,0.00
2013-6-27,101.5,86.7,75.9,74.7,69.4,58.0,89,62,25,29.99,29.86,21,8,21,0.00
2013-6-28,100.7,87.0,73.4,74.7,68.7,61.9,95,60,29,29.97,29.77,18,5,18,0.00
2013-6-29,107.0,91.4,74.8,73.4,67.3,60.1,85,51,23,29.85,29.68,18,6,18,0.00
2013-6-30,89.7,79.6,70.4,74.2,69.5,63.5,95,73,42,29.94,29.76,28,5,28,0.00
2013-7-1,91.2,80.7,72.3,69.3,60.8,53.9,86,53,33,29.97,29.83,17,6,17,0.00
2013-7-2,92.5,79.7,64.4,63.1,57.2,51.1,81,50,27,30.05,29.92,14,3,14,0.00
2013-7-3,95.2,81.5,67.9,65.3,53.1,41.6,64,42,18,30.00,29.85,15,4,15,0.00
2013-7-4,96.8,82.6,67.0,71.4,63.5,55.9,92,57,26,29.96,29.83,16,4,16,0.00
2013-7-5,95.7,84.0,67.8,73.2,66.2,58.1,93,60,30,29.96,29.79,23,6,23,0.00
2013-7-6,97.3,83.8,71.1,74.2,69.1,59.8,93,65,30,29.91,29.76,24,6,24,0.00
2013-7-7,97.4,82.2,74.4,76.0,73.7,69.5,94,77,42,29.94,29.83,31,5,31,0.03
2013-7-8,88.3,80.6,75.7,76.2,73.8,69.5,93,81,62,30.08,29.94,17,6,17,0.01
2013-7-9,98.5,84.4,72.8,76.4,72.6,68.6,96,71,39,30.12,29.96,21,7,21,0.00
2013-7-10,98.8,84.8,73.5,75.4,72.3,67.0,95,69,37,30.07,29.89,22,6,22,0.00
2013-7-11,97.9,85.4,72.4,75.0,70.2,62.8,94,64,34,29.98,29.84,18,7,18,0.00
2013-7-12,99.8,85.7,72.4,75.5,70.0,61.7,95,64,31,29.94,29.83,20,7,20,0.00
2013-7-13,101.3,87.6,72.8,73.8,66.2,57.8,89,54,25,29.95,29.79,20,5,20,0.00
2013-7-14,98.3,81.8,71.7,73.7,69.8,64.9,95,70,36,29.87,29.79,23,7,23,0.47
2013-7-15,84.6,75.7,69.7,76.7,72.8,68.5,96,91,72,29.99,29.84,23,5,23,0.30
2013-7-16,86.8,76.7,73.2,76.0,73.0,70.5,95,89,61,30.08,29.97,32,5,32,0.03
2013-7-17,86.0,74.5,71.6,74.9,71.8,70.1,96,92,66,30.14,30.07,29,4,29,0.40
2013-7-18,91.0,78.5,72.0,76.1,71.9,66.3,96,82,54,30.14,29.97,34,5,34,0.01
2013-7-19,93.8,81.8,70.7,76.4,71.6,67.9,95,74,46,30.05,29.86,15,4,15,0.00
2013-7-20,94.7,82.3,72.3,75.6,71.6,65.5,95,73,40,29.97,29.80,21,5,21,0.00
2013-7-21,93.3,82.3,74.9,78.1,74.7,70.5,95,79,49,29.94,29.84,26,7,26,0.06
2013-7-22,96.2,85.3,76.4,77.4,74.8,70.5,94,73,44,29.96,29.85,25,12,25,0.00
2013-7-23,97.5,86.0,77.4,76.7,72.6,64.2,90,68,35,29.99,29.83,26,13,26,0.00
2013-7-24,97.3,85.3,75.2,76.0,73.0,68.2,94,70,40,29.96,29.82,22,8,22,0.00
2013-7-25,98.3,85.5,73.9,75.0,72.4,65.6,95,69,35,29.99,29.90,22,8,22,0.00
2013-7-26,98.8,85.7,74.6,77.9,73.7,67.0,95,71,37,30.00,29.83,23,7,23,0.00
2013-7-27,90.5,83.1,75.8,77.7,73.8,70.7,91,75,54,29.96,29.82,20,6,20,0.00
2013-7-28,96.8,84.8,74.9,76.4,72.5,69.2,86,69,42,29.91,29.80,21,8,21,0.00
2013-7-29,98.0,86.2,76.8,76.1,72.3,64.7,92,67,34,30.01,29.90,26,14,26,0.00
2013-7-30,100.1,86.6,77.8,75.5,72.0,63.6,89,65,31,30.06,29.92,25,13,25,0.00
2013-7-31,102.3,86.9,74.8,74.2,68.9,56.9,93,61,25,30.07,29.88,20,7,20,0.00
2013-8-1,100.9,87.6,74.4,75.6,70.7,66.5,92,61,34,30.00,29.85,18,6,18,0.00
2013-8-2,99.7,86.7,73.5,75.1,70.0,64.8,90,61,33,29.96,29.83,20,9,20,0.00
2013-8-3,99.8,86.6,75.5,75.5,72.5,67.1,95,66,37,29.99,29.87,22,10,22,0.00
2013-8-4,99.8,86.8,76.3,77.0,73.3,67.2,95,68,36,30.03,29.88,24,9,24,0.00
2013-8-5,101.4,87.1,75.5,75.8,71.6,64.7,92,64,31,30.01,29.83,24,10,24,0.00
2013-8-6,103.0,88.1,76.5,75.4,71.4,61.6,92,62,27,29.92,29.76,26,13,26,0.00
2013-8-7,102.5,87.8,77.1,75.9,71.6,60.9,91,64,27,29.90,29.74,22,10,22,0.00
2013-8-8,102.9,87.9,78.2,74.6,70.9,58.3,87,62,24,29.87,29.73,25,12,25,0.00
2013-8-9,101.8,86.9,74.3,74.7,69.5,58.8,95,62,26,29.93,29.80,16,6,16,0.00
2013-8-10,99.0,85.5,74.3,78.0,73.0,70.0,88,68,41,30.01,29.88,29,5,29,0.02
2013-8-11,97.1,83.8,75.0,77.9,73.2,68.7,93,73,41,30.04,29.91,33,4,33,0.00
2013-8-12,97.0,84.5,73.0,74.2,71.8,67.6,95,69,41,30.04,29.90,20,7,20,0.00
2013-8-13,99.8,87.1,75.2,75.7,71.5,64.2,95,64,33,30.02,29.84,22,8,22,0.00
2013-8-14,101.3,86.7,75.3,74.7,70.5,58.6,91,63,26,29.97,29.81,20,7,20,0.00
2013-8-15,99.3,86.2,77.4,74.9,70.3,64.2,88,62,34,29.97,29.84,15,5,15,0.00
2013-8-16,86.9,86.9,86.9,71.3,71.3,71.3,60,60,60,29.86,29.86,13,13,13,0.00
2013-8-17,95.8,88.4,77.1,72.2,63.9,55.8,81,46,27,30.00,29.86,17,7,17,0.00
2013-8-18,95.2,83.4,69.7,70.8,63.4,59.0,74,53,34,30.01,29.91,17,3,17,0.00
2013-8-19,94.8,83.5,69.3,69.3,64.5,59.1,86,56,31,30.02,29.88,17,4,17,0.00
2013-8-20,91.3,80.9,70.5,73.8,69.7,57.8,91,70,40,29.99,29.91,25,6,25,0.00
2013-8-21,93.1,81.2,73.2,75.4,71.5,68.6,89,74,49,30.04,29.94,26,5,26,0.00
2013-8-22,96.0,84.6,72.0,76.1,72.0,68.0,94,69,42,30.05,29.87,18,4,18,0.00
2013-8-23,96.7,85.5,73.8,76.5,71.3,65.4,94,66,37,29.99,29.84,16,5,16,0.00
2013-8-24,98.5,86.6,74.9,74.3,70.6,66.3,85,62,36,30.00,29.86,25,7,25,0.00
2013-8-25,94.7,84.6,73.9,73.8,70.9,67.9,86,65,44,30.04,29.94,24,8,24,0.00
2013-8-26,87.9,78.6,74.1,75.1,73.2,70.7,95,84,59,30.07,29.99,24,7,24,0.22
2013-8-27,87.7,79.4,73.3,75.8,72.8,69.8,95,82,56,30.08,29.99,20,6,20,0.00
2013-8-28,94.2,82.5,72.1,76.7,71.3,67.2,96,72,42,30.08,29.96,18,4,18,0.00
2013-8-29,98.0,85.4,72.9,76.1,70.4,66.1,94,65,36,30.07,29.91,12,4,12,0.00
2013-8-30,100.2,87.1,74.7,73.9,69.9,66.4,87,60,34,30.00,29.83,16,6,16,0.00
2013-8-31,99.2,86.1,73.3,73.5,70.5,68.1,90,62,39,29.92,29.78,15,3,15,0.00
2013-9-1,99.4,85.7,72.9,75.5,70.5,65.2,94,64,34,29.89,29.76,17,6,17,0.00
2013-9-2,98.3,85.8,74.9,76.5,71.6,65.3,94,66,35,29.94,29.78,20,6,20,0.00
2013-9-3,99.5,85.1,72.4,73.9,69.6,65.0,88,63,33,29.98,29.83,20,4,20,0.00
2013-9-4,96.0,84.4,76.0,74.5,71.6,67.6,84,67,41,30.03,29.89,22,5,22,0.01
2013-9-5,96.3,81.9,71.0,75.9,71.3,68.2,93,73,42,30.06,29.94,30,4,30,0.00
2013-9-6,96.0,83.4,73.3,75.3,71.9,67.8,95,71,41,30.06,29.90,22,4,22,0.00
2013-9-7,88.1,78.9,73.9,76.1,73.2,70.8,94,84,58,30.00,29.94,14,2,14,0.00
2013-9-8,87.2,80.6,75.5,71.8,70.5,68.6,86,72,55,29.91,29.85,15,6,15,0.00
2013-9-9,91.2,78.0,71.1,74.7,71.3,69.0,95,81,51,29.95,29.87,32,7,32,0.00
2013-9-10,91.3,77.8,72.2,75.6,72.2,70.0,96,84,53,30.02,29.95,27,6,27,0.01
2013-9-11,92.9,81.2,73.6,75.5,71.5,64.0,95,75,40,30.06,29.95,24,6,24,0.00
2013-9-12,94.3,82.1,71.9,75.6,70.0,60.7,94,70,34,30.03,29.87,23,5,23,0.00
2013-9-13,95.5,83.8,71.4,71.7,66.5,59.0,93,60,32,29.94,29.77,20,6,20,0.00
2013-9-14,93.5,80.8,69.3,73.9,68.7,64.3,97,70,42,29.90,29.79,30,5,30,0.90
2013-9-15,91.3,80.9,73.0,76.7,73.0,70.7,95,79,53,29.97,29.88,20,5,20,0.01
2013-9-16,86.5,77.4,72.1,76.7,73.6,69.2,97,88,67,30.00,29.91,31,4,31,0.92
2013-9-17,88.0,79.1,72.5,77.1,73.3,69.8,97,84,62,30.02,29.90,20,4,20,0.01
2013-9-18,90.5,80.1,72.7,76.5,73.1,70.7,96,81,54,29.98,29.84,21,5,21,0.01
2013-9-19,90.0,79.8,75.1,79.2,75.0,73.4,95,86,61,29.92,29.77,18,4,18,0.23
2013-9-20,83.4,75.9,71.4,78.3,74.1,69.7,96,94,82,29.83,29.71,22,6,22,1.79
2013-9-21,83.6,74.7,66.9,69.9,64.6,54.6,94,73,46,29.89,29.79,24,11,24,0.00
2013-9-22,84.7,72.0,60.6,58.6,53.5,48.0,78,55,29,29.89,29.75,17,5,17,0.00
2013-9-23,89.3,73.6,58.0,61.5,55.7,51.8,90,57,31,29.82,29.72,12,1,12,0.00
2013-9-24,94.3,79.5,64.9,69.5,62.0,57.9,83,58,34,29.90,29.78,15,2,15,0.00
2013-9-25,95.0,81.5,67.5,68.0,62.7,58.3,85,56,32,29.87,29.75,15,4,15,0.00
2013-9-26,90.5,79.3,67.9,75.2,68.5,57.9,95,71,48,29.87,29.77,21,7,21,0.00
2013-9-27,90.0,79.8,73.8,78.9,75.5,72.6,96,87,64,29.89,29.78,28,8,28,0.11
2013-9-28,91.5,81.6,74.1,78.2,76.0,72.2,95,84,59,29.94,29.81,21,9,21,0.32
2013-9-29,77.0,72.5,67.3,73.7,69.4,66.4,97,90,79,30.01,29.90,33,5,33,3.02
2013-9-30,89.7,75.7,63.9,67.4,63.0,51.8,97,69,29,29.93,29.78,8,2,8,0.00
2013-10-1,90.7,79.5,73.3,76.3,73.7,67.1,96,84,56,29.89,29.78,17,6,17,0.00
2013-10-2,91.0,81.2,75.4,75.8,73.8,70.7,95,80,53,29.92,29.81,16,8,16,0.00
2013-10-3,90.3,81.1,74.8,75.1,73.1,70.2,95,78,52,29.90,29.78,18,10,18,0.00
2013-10-4,90.3,79.6,71.0,75.1,72.3,69.8,96,80,55,29.89,29.79,23,9,23,0.00
2013-10-5,90.5,77.3,63.3,74.3,67.3,47.2,96,74,47,30.01,29.83,24,6,24,0.00
2013-10-6,79.9,66.7,53.7,55.2,47.7,40.4,94,55,27,30.12,29.99,20,7,20,0.13
2013-10-7,83.7,68.0,52.0,53.7,47.2,38.9,88,52,23,30.16,30.02,12,2,12,0.00
2013-10-8,83.0,68.8,53.6,57.3,51.3,46.6,87,57,31,30.08,29.96,12,3,12,0.00
2013-10-9,83.5,70.0,55.0,64.9,59.8,51.3,95,72,47,30.05,29.92,17,5,17,0.00
2013-10-10,85.1,74.2,64.3,69.7,66.0,62.2,94,77,55,30.01,29.85,20,7,20,0.00
2013-10-11,89.0,78.8,71.8,76.2,72.9,67.9,91,83,63,29.91,29.79,21,9,21,0.00
2013-10-12,90.3,80.8,74.9,77.4,74.8,72.4,95,83,57,29.97,29.86,20,8,20,0.00
2013-10-13,78.1,73.1,65.5,75.6,71.5,64.6,97,95,91,30.14,29.97,24,7,24,2.85
2013-10-14,83.4,75.9,72.4,76.1,72.6,71.0,96,90,72,30.07,29.89,20,6,20,0.46
2013-10-15,85.2,76.4,64.6,73.5,70.7,61.1,96,84,60,29.96,29.84,17,5,17,0.00
2013-10-16,64.4,58.7,55.3,60.8,56.9,54.2,97,94,88,30.06,29.90,17,8,17,0.85
2013-10-17,71.3,65.0,54.8,55.8,53.2,49.8,87,67,52,30.13,29.97,14,5,14,0.85
2013-10-18,71.9,64.8,57.8,66.1,61.4,54.3,96,89,78,29.99,29.86,10,3,10,0.17
2013-10-19,66.4,59.2,51.4,63.5,49.1,41.6,96,71,42,30.19,29.97,23,8,23,0.01
2013-10-20,75.2,59.6,44.8,58.6,48.4,43.1,95,70,40,30.10,29.91,16,3,16,0.00
2013-10-21,79.8,69.2,59.5,70.2,63.8,57.9,95,84,70,30.03,29.88,20,3,20,0.00
2013-10-22,74.2,64.3,55.5,57.8,48.8,39.8,87,61,30,30.15,30.03,18,6,18,0.00
2013-10-23,80.5,65.0,48.8,53.3,47.1,42.2,85,56,28,30.19,30.08,14,3,14,0.00
2013-10-24,80.3,66.4,50.9,57.2,52.4,46.8,87,63,38,30.22,30.12,13,3,13,0.00
2013-10-25,80.1,67.0,53.5,64.2,59.3,51.6,96,78,54,30.30,30.17,16,5,16,0.00
2013-10-26,82.3,70.7,62.1,67.7,64.0,60.9,96,81,55,30.20,30.04,20,8,20,0.00
2013-10-27,76.0,69.2,63.2,70.1,66.2,61.7,97,90,80,30.08,29.97,13,4,13,0.00
2013-10-28,83.6,73.6,66.5,71.2,67.8,64.0,96,83,62,30.07,29.94,21,8,21,0.00
2013-10-29,85.0,75.9,70.1,73.0,69.7,67.6,94,82,61,30.06,29.93,23,11,23,0.00
2013-10-30,85.5,78.2,73.4,75.8,73.7,70.3,94,86,70,30.01,29.76,26,11,26,0.00
2013-10-31,83.3,74.5,58.6,74.2,61.1,44.0,96,69,26,29.87,29.75,31,9,31,0.67
2013-11-1,84.0,66.8,52.0,65.7,52.3,41.9,93,64,26,30.05,29.81,21,5,21,0.00
2013-11-2,73.6,64.1,53.8,47.2,42.5,35.1,69,47,25,30.29,30.05,20,6,20,0.00
2013-11-3,71.3,58.4,45.2,55.0,44.6,36.0,88,64,30,30.22,30.02,20,5,20,0.00
2013-11-4,70.4,64.1,58.5,64.4,59.7,54.7,95,86,75,30.06,29.94,13,4,13,0.00
2013-11-5,81.9,71.4,63.9,70.6,67.7,62.6,97,89,63,30.00,29.87,17,6,17,0.00
2013-11-6,79.3,65.8,52.6,72.0,59.9,45.8,95,82,65,30.31,29.94,23,8,23,0.00
2013-11-7,62.8,54.8,47.2,45.8,40.4,34.5,77,60,36,30.45,30.30,21,9,21,0.00
2013-11-8,64.8,57.2,50.6,49.6,44.0,37.6,80,63,40,30.39,30.17,15,5,15,0.00
2013-11-9,70.4,61.7,54.0,60.7,55.1,46.8,92,79,66,30.20,30.10,20,3,20,0.05
2013-11-10,68.2,63.8,61.9,60.6,58.7,56.4,90,84,66,30.29,30.16,12,3,12,0.00
2013-11-11,76.0,65.1,57.2,58.9,56.4,53.4,89,75,51,30.27,30.14,8,2,8,0.00
2013-11-12,64.9,56.2,45.4,56.4,48.3,28.3,90,75,51,30.62,30.22,26,9,26,0.00
2013-11-13,55.0,44.1,36.1,30.4,27.6,22.1,70,54,30,30.66,30.42,18,7,18,0.00
2013-11-14,62.6,48.4,32.7,50.5,38.0,29.3,92,70,34,30.42,30.06,17,3,17,0.00
2013-11-15,77.0,63.4,48.7,61.4,55.5,46.8,95,77,54,30.07,29.86,17,4,17,0.00
2013-11-16,80.8,71.5,62.3,72.2,67.2,60.2,97,87,71,29.92,29.74,29,10,29,0.00
2013-11-17,85.5,76.0,69.6,72.2,70.2,66.3,93,83,62,29.91,29.77,14,5,14,0.00
2013-11-18,76.5,68.6,62.9,69.6,64.8,58.7,97,88,77,30.08,29.91,15,5,15,0.00
2013-11-19,70.5,63.1,55.4,59.4,52.6,45.3,85,69,55,30.13,29.98,16,6,16,0.00
2013-11-20,72.8,65.1,57.1,67.9,60.3,52.6,95,85,75,30.01,29.87,13,4,13,0.00
2013-11-21,83.3,75.0,69.4,73.4,71.2,67.9,96,88,71,30.02,29.91,17,7,17,0.00
2013-11-22,74.5,47.1,37.1,72.0,44.8,34.1,97,92,86,30.38,30.02,26,14,26,0.12
2013-11-23,42.7,39.8,37.1,40.5,37.1,34.2,95,90,84,30.47,30.36,21,13,21,0.00
2013-11-24,43.1,39.3,34.8,40.4,35.4,31.9,96,86,69,30.50,30.33,21,12,21,0.41
2013-11-25,40.6,37.6,34.6,39.0,36.3,33.6,97,95,89,30.34,30.10,17,8,17,0.39
2013-11-26,51.2,43.5,39.1,38.4,35.3,30.4,90,74,57,30.39,30.13,24,9,24,0.00
2013-11-27,51.6,42.3,35.5,30.7,26.7,20.8,74,56,30,30.51,30.37,20,5,20,0.00
2013-11-28,55.7,42.4,31.4,33.5,28.4,23.5,91,61,29,30.48,30.36,12,2,12,0.00
2013-11-29,63.0,48.5,35.8,51.4,42.9,28.9,96,82,61,30.52,30.36,12,4,12,0.00
2013-11-30,69.4,58.0,46.4,59.4,52.4,44.1,94,82,66,30.39,30.18,21,4,21,0.00
2013-12-1,72.7,61.8,53.8,62.1,57.7,52.1,96,87,68,30.20,29.96,16,4,16,0.00
2013-12-2,78.1,64.7,56.3,62.5,57.4,52.4,96,79,42,29.96,29.68,20,7,20,0.00
2013-12-3,83.9,66.0,52.8,61.8,54.6,46.3,94,72,27,29.72,29.60,18,6,18,0.00
2013-12-4,76.1,66.5,57.5,67.6,63.0,56.4,97,89,71,29.78,29.67,17,5,17,0.01
2013-12-5,68.5,49.2,34.2,67.3,44.5,28.3,96,84,68,30.07,29.77,26,13,26,0.02
2013-12-6,40.5,34.4,29.9,34.2,30.1,24.8,95,84,74,30.44,30.05,23,13,23,0.03
2013-12-7,32.1,29.2,26.8,26.8,23.9,21.2,93,81,73,30.48,30.31,20,10,20,0.00
2013-12-8,46.9,37.2,28.1,41.1,33.8,26.3,95,88,77,30.33,30.06,9,3,9,0.00
2013-12-9,42.5,39.8,35.7,41.7,38.6,32.5,97,95,89,30.39,30.09,22,10,22,0.07
2013-12-10,47.7,37.3,30.1,32.7,26.3,22.7,92,67,38,30.54,30.37,21,7,21,0.00
2013-12-11,58.4,43.9,30.0,34.1,30.3,25.0,85,61,32,30.55,30.36,15,4,15,0.00
2013-12-12,50.3,43.2,36.5,37.7,33.9,30.3,79,70,56,30.62,30.34,15,6,15,0.00
2013-12-13,50.6,47.2,44.0,49.7,42.8,36.3,97,85,67,30.34,29.91,14,3,14,0.05
2013-12-14,55.4,49.0,42.5,50.1,41.9,31.9,97,78,60,30.34,29.91,25,10,25,0.01
2013-12-15,61.4,46.9,34.1,34.9,31.2,27.9,80,56,34,30.43,30.29,17,3,17,0.00
2013-12-16,65.7,48.7,31.9,36.7,31.8,27.6,86,56,29,30.35,30.22,16,4,16,0.00
2013-12-17,72.3,52.6,36.2,47.9,39.4,31.7,93,64,34,30.35,30.23,15,3,15,0.00
2013-12-18,70.3,55.3,37.5,55.4,46.6,34.9,92,74,50,30.30,30.06,20,6,20,0.00
2013-12-19,77.0,66.3,57.0,63.9,60.1,52.4,92,81,61,30.06,29.79,30,14,30,0.00
2013-12-20,74.3,69.8,64.6,68.3,65.9,62.3,93,87,77,29.84,29.61,28,9,28,0.00
2013-12-21,73.0,65.0,52.3,68.3,56.2,40.2,96,76,35,29.83,29.50,29,7,29,0.21
2013-12-22,57.2,50.3,39.9,45.3,40.2,31.6,84,69,55,30.37,29.83,20,8,20,0.00
2013-12-23,55.7,42.8,30.8,31.6,29.7,26.9,87,62,35,30.55,30.36,15,5,15,0.00
2013-12-24,59.4,44.6,30.2,41.3,30.3,20.2,94,63,25,30.56,30.30,16,4,16,0.00
2013-12-25,55.4,48.1,38.0,48.5,44.3,36.7,96,87,75,30.39,30.25,12,4,12,0.00
2013-12-26,51.2,47.4,43.8,47.5,40.6,37.0,89,77,70,30.44,30.34,15,5,15,0.00
2013-12-27,57.5,49.6,44.8,46.9,44.4,40.9,94,83,65,30.46,30.33,9,3,9,0.21
2013-12-28,57.2,49.4,42.1,46.7,43.0,36.6,94,80,55,30.33,30.05,10,2,10,0.00
2013-12-29,63.5,49.0,36.7,51.9,43.9,32.3,97,83,64,30.27,30.00,24,7,24,0.00
2013-12-30,42.3,38.4,35.7,32.3,29.3,25.9,84,70,59,30.43,30.24,21,8,21,0.00
2013-12-31,48.5,41.7,36.5,33.3,30.6,27.4,80,65,49,30.49,30.28,10,3,10,0.00
2014-1-1,58.4,49.4,38.8,50.3,42.6,32.9,89,78,68,30.28,30.04,15,4,15,0.00
2014-1-2,52.0,44.7,35.5,49.4,31.2,24.6,95,61,39,30.48,30.10,29,11,29,0.00